Location: Chena
(64.8152°N, 147.9227°W)
Time: 18:20:38
(UTC+00:00)

Vanguard 1 Rocket - Visible Passes

Search period start: 04 March 2021 00:00
Search period end: 14 March 2021 00:00
Orbit: 654 x 4223 km, 34.3° (Epoch: 03 March)

Date Brightness Start Highest point End Pass type
(mag) Time Alt. Az. Time Alt. Az. Time Alt. Az.
04 Mar 11.5 09:08:46 13° ESE 09:08:46 13° ESE 09:14:08 10° ESE visible
04 Mar 11.1 11:25:59 24° SSE 11:28:22 25° SSE 11:45:03 10° ESE visible
04 Mar 11.2 13:43:12 19° SW 13:54:09 26° S 14:10:01 10° SE visible
05 Mar 11.3 10:18:11 21° SE 10:18:11 21° SE 10:31:57 10° ESE visible
05 Mar 11.1 12:35:24 24° SSW 12:41:52 27° S 12:58:58 10° SE visible
05 Mar 11.2 14:52:37 12° WSW 15:07:20 22° SSW 15:21:27 10° SSE visible
06 Mar 11.4 09:10:23 15° ESE 09:10:23 15° ESE 09:17:21 10° ESE visible
06 Mar 11.1 11:27:37 26° S 11:29:32 26° SSE 11:47:00 10° ESE visible
06 Mar 11.1 13:44:50 19° SW 13:55:21 26° SSW 14:11:32 10° SSE visible
07 Mar 11.2 10:19:49 23° SSE 10:19:49 23° SSE 10:34:04 10° ESE visible
07 Mar 11.0 12:37:02 25° SSW 12:43:03 27° S 13:00:36 10° SE visible
07 Mar 11.3 14:54:16 12° WSW 15:08:25 21° SSW 15:22:23 10° S visible
08 Mar 11.4 09:12:03 17° SE 09:12:03 17° SE 09:19:52 10° ESE visible
08 Mar 11.0 11:29:16 27° S 11:30:42 27° S 11:48:44 10° SE visible
08 Mar 11.1 13:46:30 19° SW 13:56:30 25° SSW 14:12:46 10° SSE visible
09 Mar 11.1 10:21:31 24° SSE 10:21:31 24° SSE 10:35:54 10° ESE visible
09 Mar 11.0 12:38:45 25° SSW 12:44:15 27° S 13:01:59 10° SE visible
09 Mar 11.3 14:55:59 11° WSW 15:09:26 19° SW 15:22:52 10° S visible
10 Mar 11.3 09:13:48 18° SE 09:13:48 18° SE 09:21:59 10° ESE visible
10 Mar 11.0 11:31:01 27° S 11:31:53 27° S 11:50:14 10° SE visible
10 Mar 11.1 13:48:16 19° SW 13:57:36 23° SSW 14:13:40 10° SSE visible
11 Mar 11.5 08:06:06 10° ESE 08:06:06 10° ESE 08:06:24 10° ESE visible
11 Mar 11.1 10:23:20 24° SSE 10:23:20 24° SSE 10:37:30 10° ESE visible
11 Mar 11.0 12:40:35 24° SSW 12:45:25 26° SSW 13:03:07 10° SSE visible
11 Mar 11.3 14:57:49 10° WSW 15:10:23 17° SW 15:22:44 10° S visible
12 Mar 11.3 09:15:43 18° SE 09:15:43 18° SE 09:23:46 10° ESE visible
12 Mar 11.0 11:32:57 27° S 11:33:06 27° S 11:51:29 10° SE visible
12 Mar 11.1 13:50:12 18° SW 13:58:41 21° SSW 14:14:10 10° S visible
13 Mar 11.5 08:08:10 11° ESE 08:08:10 11° ESE 08:08:43 10° ESE visible
13 Mar 11.1 10:25:24 24° SSE 10:25:24 24° SSE 10:38:53 10° SE visible
13 Mar 11.0 12:42:39 24° SSW 12:46:36 24° SSW 13:03:56 10° SSE visible
13 Mar 11.3 15:00:46 10° WSW 15:11:18 14° SW 15:21:41 10° SSW visible
